map of HME home
HME - Airport
Location
City:  Hassi Messaoud, Ouargla, Algeria
Name:Oued Irara-Krim Belkacem Airport
ICAO:DAUH
IATA:HME

Details
Type:Airport (Aerodrome, Airfield)
Use:Public/Civil, International (customs port of entry)
Latitude:3140'26"N (31.673889)
Longitude:608'26"E (6.140556)
Elevation:459 ft (140 m)
Variation:1.67E (WMM2015v2 magnetic declination)
0.12 annual change
Runways:1
Longest:9843 × 148 ft (3000 × 45 m)

Time
Time Zone:UTC+1
Local Time:

Weather
METAR:DAUH 041400Z 29017KT 6000 DRSA FEW040 16/M06 Q1020
TAF:DAUH 041100Z 0412/0512 30015KT CAVOK PROB40 0412/0418 30020G30KT 3000 DRSA PROB30
TEMPO 0412/0416 30020G35KT 1500 BLSA

Related Locations
Nearby:
Farthest:NZOP: 11772 mi / 18946 km
Opotiki, BOP, NZ

Find:

   beyond  
but within

Other Information
Maps:
NOTAMs:
Links:
Sources:

  
  • flag of Algeria
  

Sectional Chart

Flight Planning
at skyvector.com

Satellite Image

Google Maps Satellite view

 

Copyright © 2004-2019 Karl L. Swartz. All rights reserved.
The Great Circle Mapper name and logo are trademarks of the Great Circle Mapper.
All other trademarks mentioned herein belong to their respective owners.
Please see credits for attibutions and further copyright information.

  Follow gcmap on Facebook Follow gcmap on Twitter GCmap on LinkedIn

hCard Microformat

Geo Microformat